Phoenix, AZ

12:27 AM MST on December 18, 2017 (GMT -0700)
Phoenix Sky Harbor International

Weather History for KPHX - February, 2013

Change the Weather History Date:

Monday, February 4, 2013

  Actual Average Record
Temperature  
Mean Temperature 67 °F 58 °F  
Max Temperature 76 °F 69 °F 85 °F (1963)
Min Temperature 57 °F 47 °F 27 °F (1955)
Degree Days  
Heating Degree Days 0 7  
Month to date heating degree days 11 28  
Since 1 July heating degree days 643 698  
Cooling Degree Days 2 0  
Month to date cooling degree days 2 0  
Year to date cooling degree days 7 2  
Growing Degree Days 16 (Base 50)    
Moisture  
Dew Point 44 °F    
Average Humidity 51    
Maximum Humidity 72    
Minimum Humidity 29    
Precipitation  
Precipitation 0.00 in 0.02 in 0.89 in (1958)
Month to date precipitation T 0.11  
Year to date precipitation 1.39 1.02  
Snow  
Snow 0.00 in - - ()
Month to date snowfall 0.0  
Year to date snowfall 0.0  
Since 1 July snowfall 0.0  
Snow Depth 0.00 in    
Sea Level Pressure  
Sea Level Pressure 29.95 in    
Wind  
Wind Speed 1 mph (WNW)    
Max Wind Speed 9 mph    
Max Gust Speed 13 mph    
Visibility 10 miles    
Events      
T = Trace of Precipitation, MM = Missing Value Source: NWS Daily Summary

Daily Weather History Graph

Daily Weather History Graph

Search for Another Location

Airport or City:

Trip Planner

Search our weather history database for the weather conditions in past years. The results will help you decide how hot, cold, wet, or windy it might be!

Date:

Astronomy

Feb. 04, 2013 Rise Set
Actual Time 7:21 AM MST 6:02 PM MST
Civil Twilight 6:55 AM MST 6:28 PM MST
Nautical Twilight 6:26 AM MST 6:58 PM MST
Astronomical Twilight 5:56 AM MST 7:27 PM MST
Moon 1:57 AM MST (2/4) 12:34 PM MST (2/4)
Length of Visible Light 11h 33m
Length of Day
10h 41m
Last Quarter, 36% of the Moon is Illuminated
Feb 4
Last Quarter
Feb 10
New
Feb 17
First Quarter
Feb 25
Full
Mar 4
Last Quarter

Hourly Weather History & Observations

Time (MST) Temp. Dew Point Humidity Pressure Visibility Wind Dir Wind Speed Gust Speed Precip Events Conditions
12:51 AM 59.0 °F 46.9 °F 64% 29.96 in 10.0 mi Calm Calm - N/A   Mostly Cloudy
1:51 AM 60.1 °F 46.9 °F 62% 29.96 in 10.0 mi Calm Calm - N/A   Overcast
3:51 AM 60.8 °F 48.2 °F 63% 29.98 in 10.0 mi East 3.5 mph - N/A   Overcast
4:51 AM 59.0 °F 48.0 °F 67% 29.95 in 10.0 mi Calm Calm - N/A   Overcast
5:51 AM 59.0 °F 46.9 °F 64% 29.96 in 10.0 mi Calm Calm - N/A   Overcast
6:51 AM 57.9 °F 48.9 °F 72% 29.97 in 10.0 mi Calm Calm - N/A   Mostly Cloudy
7:51 AM 57.9 °F 48.0 °F 70% 29.98 in 10.0 mi Calm Calm - N/A   Mostly Cloudy
8:51 AM 61.0 °F 45.0 °F 56% 29.99 in 10.0 mi Calm Calm - N/A   Scattered Clouds
9:51 AM 64.0 °F 46.0 °F 52% 30.00 in 10.0 mi Calm Calm - N/A   Scattered Clouds
10:51 AM 66.9 °F 44.1 °F 44% 30.00 in 10.0 mi Variable 3.5 mph - N/A   Partly Cloudy
11:51 AM 69.1 °F 39.9 °F 35% 29.99 in 10.0 mi NNE 4.6 mph - N/A   Partly Cloudy
12:51 PM 71.1 °F 41.0 °F 34% 29.96 in 10.0 mi Calm Calm - N/A   Scattered Clouds
1:51 PM 73.0 °F 39.9 °F 30% 29.93 in 10.0 mi NNE 6.9 mph - N/A   Scattered Clouds
2:51 PM 75.0 °F 41.0 °F 29% 29.91 in 10.0 mi Calm Calm - N/A   Scattered Clouds
3:51 PM 73.9 °F 39.9 °F 29% 29.89 in 10.0 mi Calm Calm - N/A   Scattered Clouds
4:51 PM 73.9 °F 39.9 °F 29% 29.88 in 10.0 mi SW 4.6 mph - N/A   Scattered Clouds
5:51 PM 72.0 °F 39.0 °F 30% 29.88 in 10.0 mi Calm Calm - N/A   Clear
6:51 PM 69.1 °F 44.1 °F 40% 29.89 in 10.0 mi WSW 4.6 mph - N/A   Clear
7:51 PM 66.9 °F 42.1 °F 40% 29.92 in 10.0 mi West 3.5 mph - N/A   Clear
8:51 PM 64.9 °F 43.0 °F 45% 29.94 in 10.0 mi Calm Calm - N/A   Clear
9:51 PM 63.0 °F 44.1 °F 50% 29.94 in 10.0 mi Calm Calm - N/A   Clear
10:51 PM 62.1 °F 45.0 °F 53% 29.95 in 10.0 mi Calm Calm - N/A   Clear
11:51 PM 60.1 °F 45.0 °F 57% 29.95 in 10.0 mi Calm Calm - N/A   Clear